Vertical_Velocity
1 -0 -2 -1 -2 -1 -1 -0 -0 -2 -2 2 -1 -0 -4 -4 2 -1 -3 -4 -6 -6 0 -1 2 2 -1 -1 -3 2 7 1 13 -2 8 3 -7 -2 1 -2 1 -0 2 -3
0 -0 -2 -1 1 1 0 0 -2 -4 -0 3 -1 -7 -4 -0 -5 -5 -4 -4 -3 -4 -5 -6 -5 -0 2 2 2 -1 0 6 2 8 -2 16 -3 -5 3 0 2 -0 1 0
-4 -0 0 -1 1 2 1 -1 -0 0 -2 -1 0 -4 -0 -5 0 1 1 -4 1 -4 -6 -4 -0 -0 3 -0 -0 -1 3 1 2 3 16 12 13 14 10 -2 -1 -4 4 2
-2 -1 -1 0 -0 -3 -1 -0 -1 -0 -3 -2 -4 -9 -3 -3 -4 -0 -2 -0 -4 -5 -1 -1 -3 -4 -4 -6 -3 2 3 6 7 3 0 5 5 -6 -13 -6 -1 -1 3 5
-8 0 0 -1 -2 -2 -2 -1 -1 -0 -1 -1 -3 -0 -17 0 -3 -2 -2 -1 -0 0 1 -3 -1 0 4 7 5 8 6 1 6 6 1 0 12 11 6 -0 5 2 3 6
0 2 -2 -3 1 -1 -1 -3 -3 -1 -1 -3 -3 -3 -10 -2 -2 -0 -1 -1 1 0 -1 -4 -5 -5 -7 1 -1 -3 -4 2 6 5 5 6 -5 -1 3 3 2 0 1 2
-1 -0 0 -2 -4 -1 -3 -5 -4 -7 -5 -7 -0 0 -14 -3 -3 2 0 -0 2 -1 9 9 0 1 -3 -6 -7 -5 -5 -5 -5 0 4 4 2 5 -0 7 -1 -1 -3 -5
-3 -6 -2 -1 -5 -7 -1 -6 -6 -3 -1 -3 -1 -3 -18 -1 0 2 3 6 4 -2 2 5 2 6 1 0 0 -0 -1 -2 -2 -4 -4 4 7 4 3 4 0 2 1 4
-3 -1 2 -1 -0 -9 -3 -3 -6 -3 -1 -3 -4 -9 -8 0 -0 -1 -0 -3 -3 -5 -3 -2 11 13 3 0 1 -2 -4 -6 -8 -4 3 -1 -1 1 -5 -2 5 4 3 4
-2 -4 -1 1 -3 1 -7 -5 -11 -5 -3 -1 -3 -1 -7 -2 1 0 -1 -2 -5 -7 -11 -8 1 -6 2 3 2 -1 1 -5 -1 -2 -3 -0 -0 -1 3 6 8 2 7 3
-1 -9 -1 -1 -1 -4 2 1 1 -7 -3 -4 -0 -9 -5 -1 -0 0 -1 0 3 -2 -7 -1 4 7 10 1 -2 -2 -3 0 -1 -2 -4 1 2 4 9 9 6 4 4 -0
1 -3 -1 -7 -1 -2 -2 -3 -3 -5 -3 -1 -3 -19 -0 0 -0 1 -0 -4 -6 1 -1 -6 -3 3 -4 -0 2 1 -8 -3 1 1 -0 1 4 3 3 4 8 3 1 4
-2 -0 -2 -0 -9 -3 -0 -0 -1 -1 -1 -3 -3 -15 -0 -1 -2 -8 2 -2 -2 -3 -3 -5 -1 2 -1 -3 -0 -2 -8 -0 1 4 2 2 5 4 3 5 2 4 3 2
-5 -0 -5 -8 -9 -4 1 1 0 -4 -0 -2 -7 -8 -11 -7 -1 -5 -7 -0 1 4 -0 -2 -3 -3 3 -1 -1 -3 -7 3 4 3 6 4 7 7 6 0 3 5 2 7
-6 -2 0 -1 -1 1 -1 -1 0 -0 -9 0 -13 1 -9 -2 2 -0 3 -2 -3 -6 -1 -2 -2 -1 4 2 5 1 4 -2 2 7 10 8 3 8 -1 2 3 2 4 6
-0 -1 -1 -2 -1 1 0 -0 0 -0 -2 1 3 -12 0 -7 -0 -3 -0 -1 -2 -1 -0 3 1 0 -0 -0 -1 1 6 -1 0 5 9 4 6 5 4 2 4 5 2 -2
-2 -1 -2 -3 0 -0 -2 -7 -2 -1 -0 -3 0 -12 -0 -4 -1 0 -3 -0 -0 2 1 5 2 2 3 3 5 3 -1 -1 8 5 1 3 5 -0 4 2 5 4 1 -2
-1 -1 -1 -2 -3 -5 -17 -1 -2 -4 -2 0 0 -2 1 2 0 -1 2 0 -0 0 2 2 1 2 2 1 2 2 -2 0 -3 -4 -2 2 6 4 3 1 -3 -3 3 -1
-2 -1 -1 0 -0 -9 1 -1 -1 -2 -8 -1 -1 -1 -1 0 3 2 -3 0 2 3 3 3 6 6 2 -1 -3 -4 -3 -3 -3 -3 -0 -1 -3 -5 1 0 -0 -1 4 2
0 -1 -3 -1 -0 -1 -3 -0 0 -2 -6 -1 0 -1 0 -1 0 0 -0 1 -1 1 2 2 2 0 1 3 4 0 -1 4 0 1 -1 -1 -4 -7 -9 4 5 -1 0 -7
2 1 -0 -0 -0 -8 -4 -1 -0 -2 -13 -1 -1 -0 0 -0 0 -0 -0 1 0 0 1 2 2 3 5 9 8 -0 1 1 1 3 -3 1 7 3 2 -0 -4 -3 -2 -2
-5 -3 -1 2 2 -8 0 0 0 -6 -0 -1 0 -1 -0 -3 -2 -0 -1 1 -1 -2 -1 0 -2 -1 -1 2 6 -3 2 2 0 -0 2 -0 1 -2 -5 1 -4 -6 -1 0
-1 -9 -7 -6 -12 -4 0 -1 0 -1 1 -2 1 -1 1 -1 -1 -1 -2 -1 -0 -2 -1 -1 -1 -4 3 2 6 -2 0 1 2 -1 -2 -2 -2 -1 2 3 1 1 2 2
-0 -0 0 -2 -5 -4 -2 1 -1 -0 -1 -1 1 1 -1 -2 -2 -2 0 -1 -2 -2 -1 0 -1 1 -2 1 -2 -1 -2 -1 -0 -2 -2 1 -1 -2 -1 1 3 4 2 -0
-5 1 -2 -3 -4 -0 -0 -1 -2 -1 -1 0 1 -0 -1 -1 -0 -1 -2 0 0 -1 -1 -1 -3 -3 -2 -1 -1 0 -1 -3 -3 -1 3 3 3 2 2 2 1 0 -1 -1
-2 -5 -3 -6 -2 -1 -3 0 0 -0 -0 1 0 -0 0 0 -1 -2 -1 0 -1 -1 -2 -1 -0 -1 -1 2 -1 -1 0 3 2 -0 0 1 2 1 -1 -3 -4 -4 -4 -3
Height
1472 1474 1475 1476 1479 1483 1484 1486 1489 1486 1482 1483 1480 1479 1471 1466 1467 1465 1462 1460 1459 1457 1457 1460 1462 1465 1467 1470 1473 1475 1478 1481 1484 1485 1489 1491 1493 1496 1498 1501 1503 1505 1508 1511
1474 1475 1474 1477 1480 1484 1486 1487 1490 1485 1482 1482 1479 1472 1465 1458 1456 1454 1453 1451 1450 1451 1451 1452 1456 1459 1461 1463 1466 1469 1471 1473 1476 1479 1482 1484 1486 1489 1492 1495 1498 1501 1503 1505
1473 1471 1472 1476 1479 1483 1486 1488 1489 1491 1485 1482 1481 1464 1457 1449 1445 1443 1442 1442 1444 1443 1442 1444 1448 1451 1455 1457 1460 1462 1464 1465 1468 1470 1472 1477 1480 1482 1485 1490 1493 1496 1497 1498
1471 1469 1471 1476 1478 1480 1485 1485 1486 1489 1491 1498 1488 1490 1468 1452 1446 1441 1437 1437 1436 1437 1436 1437 1439 1442 1446 1449 1452 1455 1457 1458 1461 1462 1463 1467 1470 1473 1477 1482 1486 1490 1492 1493
1473 1471 1473 1477 1477 1478 1485 1485 1488 1491 1498 1500 1494 1497 1467 1455 1446 1439 1435 1433 1432 1433 1434 1435 1436 1437 1440 1443 1446 1448 1450 1452 1455 1457 1458 1460 1463 1465 1469 1473 1478 1483 1486 1488
1470 1470 1473 1475 1476 1477 1482 1489 1494 1497 1505 1520 1492 1492 1473 1455 1444 1438 1436 1435 1434 1433 1432 1433 1434 1435 1436 1439 1440 1442 1443 1445 1448 1451 1452 1453 1454 1459 1462 1466 1471 1476 1480 1484
1475 1476 1475 1475 1481 1482 1485 1500 1527 1523 1526 1506 1486 1494 1471 1450 1442 1443 1442 1439 1435 1434 1434 1433 1432 1432 1433 1435 1436 1438 1438 1439 1442 1443 1444 1445 1447 1451 1455 1460 1463 1468 1473 1477
1485 1492 1477 1476 1479 1485 1487 1496 1516 1506 1504 1501 1484 1481 1459 1445 1441 1440 1440 1439 1436 1435 1435 1434 1433 1431 1431 1432 1432 1433 1434 1434 1436 1436 1436 1438 1440 1444 1448 1453 1457 1462 1466 1470
1487 1481 1474 1476 1477 1481 1488 1504 1495 1506 1516 1527 1491 1474 1452 1443 1442 1441 1440 1438 1438 1438 1436 1435 1433 1430 1428 1428 1428 1428 1429 1429 1429 1429 1428 1430 1433 1436 1440 1445 1450 1456 1460 1464
1470 1486 1474 1476 1477 1479 1483 1488 1509 1524 1532 1509 1485 1481 1459 1445 1443 1444 1442 1440 1439 1437 1433 1432 1432 1431 1428 1425 1425 1424 1424 1422 1421 1420 1421 1422 1425 1428 1433 1438 1443 1449 1454 1458
1465 1478 1483 1477 1481 1484 1486 1490 1490 1500 1505 1514 1498 1469 1448 1444 1442 1443 1440 1438 1436 1432 1430 1427 1424 1423 1422 1421 1420 1418 1416 1416 1413 1413 1415 1417 1418 1421 1427 1433 1439 1444 1448 1453
1466 1476 1489 1483 1478 1478 1480 1484 1488 1509 1503 1508 1512 1471 1439 1440 1440 1441 1437 1436 1434 1432 1427 1423 1422 1421 1418 1418 1416 1413 1412 1410 1410 1407 1410 1412 1414 1419 1425 1430 1435 1439 1444 1449
1466 1478 1496 1481 1484 1480 1483 1481 1482 1489 1492 1512 1498 1466 1440 1441 1439 1437 1434 1432 1428 1426 1423 1420 1418 1417 1416 1414 1412 1410 1408 1407 1405 1403 1407 1410 1414 1419 1423 1427 1432 1436 1440 1446
1465 1477 1481 1486 1481 1479 1488 1477 1479 1488 1500 1491 1479 1452 1446 1442 1437 1433 1430 1427 1425 1422 1419 1417 1414 1411 1411 1410 1409 1408 1407 1406 1400 1404 1407 1410 1415 1417 1421 1426 1430 1435 1438 1442
1467 1478 1476 1475 1473 1472 1473 1474 1477 1487 1471 1480 1452 1456 1443 1439 1434 1430 1427 1424 1421 1417 1414 1411 1410 1407 1407 1407 1406 1405 1402 1402 1404 1406 1409 1407 1414 1418 1420 1424 1428 1432 1437 1443
1468 1485 1481 1487 1470 1472 1476 1470 1471 1470 1466 1464 1453 1448 1438 1435 1432 1429 1427 1424 1420 1414 1412 1409 1407 1407 1406 1406 1405 1403 1401 1403 1406 1409 1409 1409 1413 1418 1421 1423 1429 1434 1439 1445
1468 1475 1490 1486 1469 1469 1473 1457 1456 1456 1455 1451 1452 1437 1434 1431 1430 1430 1428 1426 1421 1413 1410 1409 1406 1406 1405 1405 1405 1404 1404 1406 1410 1409 1411 1414 1416 1419 1422 1426 1433 1437 1441 1447
1469 1476 1489 1489 1474 1477 1446 1438 1439 1445 1440 1441 1439 1436 1434 1432 1431 1431 1429 1425 1421 1416 1413 1411 1409 1408 1407 1407 1408 1408 1408 1411 1411 1413 1415 1418 1421 1424 1429 1433 1437 1441 1445 1450
1466 1473 1484 1476 1478 1458 1438 1436 1437 1441 1439 1434 1435 1434 1431 1429 1429 1430 1428 1425 1422 1419 1416 1414 1412 1411 1410 1410 1411 1412 1413 1415 1417 1419 1422 1425 1429 1432 1435 1437 1439 1441 1449 1452
1467 1469 1475 1472 1478 1457 1437 1434 1435 1437 1444 1432 1433 1432 1430 1429 1427 1430 1428 1425 1423 1421 1419 1418 1417 1416 1416 1415 1416 1417 1419 1420 1421 1423 1426 1429 1431 1430 1437 1442 1445 1448 1451 1456
1466 1468 1469 1470 1467 1453 1438 1435 1435 1440 1441 1430 1430 1429 1428 1430 1432 1430 1429 1426 1424 1423 1422 1420 1419 1419 1420 1421 1421 1420 1422 1423 1425 1425 1427 1432 1438 1440 1443 1447 1448 1451 1455 1458
1459 1465 1463 1465 1464 1464 1432 1434 1437 1432 1428 1428 1427 1428 1427 1428 1430 1430 1429 1428 1426 1425 1424 1423 1423 1423 1424 1424 1426 1426 1427 1429 1431 1434 1437 1440 1443 1446 1450 1452 1454 1456 1458 1460
1457 1451 1452 1451 1446 1433 1431 1430 1430 1429 1428 1426 1425 1426 1427 1427 1429 1431 1431 1430 1429 1428 1428 1428 1427 1427 1428 1429 1431 1432 1434 1436 1439 1441 1444 1446 1448 1451 1454 1456 1458 1459 1460 1460
1443 1441 1443 1443 1430 1430 1428 1428 1428 1427 1426 1425 1424 1425 1426 1427 1428 1431 1432 1432 1431 1432 1432 1432 1433 1433 1434 1436 1438 1440 1441 1443 1445 1447 1450 1452 1453 1455 1457 1459 1459 1459 1459 1459
1439 1438 1436 1435 1429 1428 1426 1426 1426 1425 1424 1423 1423 1424 1426 1428 1428 1430 1432 1433 1434 1434 1435 1436 1437 1438 1440 1442 1444 1445 1447 1448 1450 1452 1453 1455 1457 1458 1460 1460 1460 1459 1459 1459
1433 1432 1435 1431 1425 1426 1423 1423 1422 1422 1422 1421 1421 1422 1424 1426 1427 1429 1432 1434 1435 1437 1438 1440 1441 1442 1444 1446 1448 1449 1451 1454 1455 1456 1457 1458 1459 1460 1460 1460 1460 1459 1458 1456